Location: Cussy
(47.0410°N, 4.6412°E)
Time: 15:43:23
(UTC+00:00)

Cosmos 2297 - Pass Details

Date: 30 November 2020
Orbit: 834 x 860 km, 71.0° (Epoch: 27 January)

Event Time Altitude Azimuth Distance (km) Brightness Sun altitude
Rises 16:59:58 0° 331° (NNW) 3,412 7.0 -10.8°
Reaches altitude 10° 17:02:25 10° 330° (NNW) 2,477 6.3 -11.2°
Maximum altitude 17:08:05 74° 247° (WSW) 889 4.0 -12.1°
Drops below altitude 10° 17:13:46 10° 163° (SSE) 2,478 6.2 -13.1°
Sets 17:16:13 0° 162° (SSE) 3,413 6.9 -13.5°
